Weather History for Fort Rucker / Ozark, AL

Change the Weather History Date:

Sunday, April 13, 2014

  Actual Average (KDHN) Record (KDHN)
Temperature  
Mean Temperature 68 °F 65 °F  
Max Temperature 82 °F 77 °F 89 °F (1948)
Min Temperature 54 °F 52 °F 31 °F (1940)
Degree Days  
Heating Degree Days 0 3  
Month to date heating degree days 46  
Since 1 July heating degree days 1816  
Cooling Degree Days 3 2  
Month to date cooling degree days 23  
Year to date cooling degree days 54  
Growing Degree Days 18 (Base 50)    
Moisture  
Dew Point 57 °F    
Average Humidity 73    
Maximum Humidity 97    
Minimum Humidity 39    
Precipitation  
Precipitation 0.00 in 0.14 in 2.65 in (1955)
Month to date precipitation 1.76  
Year to date precipitation 17.04  
Sea Level Pressure  
Sea Level Pressure 30.06 in    
Wind  
Wind Speed - (North)    
Max Wind Speed -    
Max Gust Speed -    
Visibility 7 miles    
Events Fog    
T = Trace of Precipitation, MM = Missing Value Source: NWS Daily Summary

Daily Weather History Graph

Daily Weather History Graph

Search for Another Location

Airport:

Trip Planner

Search our weather history database for the weather conditions in past years. The results will help you decide how hot, cold, wet, or windy it might be!

Date:

Astronomy

Apr. 13, 2014 Rise Set
Actual Time 6:17 AM CDT 7:10 PM CDT
Civil Twilight 5:52 AM CDT 7:35 PM CDT
Nautical Twilight 5:23 AM CDT 8:04 PM CDT
Astronomical Twilight 4:52 AM CDT 8:34 PM CDT
Moon 5:52 PM CDT (4/13) 5:09 AM CDT (4/13)
Length of Visible Light 13h 42m
Length of Day
12h 53m
Waxing Gibbous, 97% of the Moon is Illuminated
Apr 13
Waxing Gibbous
Apr 15
Full
Apr 22
Last Quarter
Apr 29
New
May 6
First Quarter

Hourly Weather History & Observations

Time (CDT) Temp. Heat Index Dew Point Humidity Pressure Visibility Wind Dir Wind Speed Gust Speed Precip Events Conditions
12:53 AM 57.9 °F - 55.9 °F 93% 30.10 in 9.0 mi North - - N/A   Clear
1:53 AM 55.9 °F - 55.0 °F 97% 30.09 in 7.0 mi North - - N/A   Clear
2:53 AM 55.0 °F - 53.1 °F 93% 30.07 in 6.0 mi North - - N/A   Clear
3:34 AM 54.0 °F - 53.1 °F 97% 30.08 in 6.0 mi North - - N/A   Scattered Clouds
3:43 AM 55.0 °F - 53.1 °F 93% 30.07 in 6.0 mi North - - N/A   Mostly Cloudy
3:53 AM 55.9 °F - 54.0 °F 93% 30.07 in 7.0 mi North - - N/A   Overcast
4:13 AM 55.9 °F - 54.0 °F 93% 30.07 in 1.5 mi North - - N/A   Overcast
4:21 AM 55.9 °F - 55.0 °F 97% 30.07 in 0.2 mi North - - N/A Fog Fog
4:53 AM 57.9 °F - 57.0 °F 97% 30.08 in 0.2 mi North - - N/A Fog Fog
5:53 AM 61.0 °F - 60.1 °F 97% 30.09 in 0.2 mi North - - N/A Fog Fog
6:53 AM 60.1 °F - 59.0 °F 96% 30.11 in 0.2 mi North - - N/A Fog Fog
7:10 AM 60.1 °F - 59.0 °F 96% 30.12 in 1.8 mi North - - N/A   Scattered Clouds
7:17 AM 61.0 °F - 60.1 °F 97% 30.12 in 3.0 mi North - - N/A   Scattered Clouds
7:53 AM 63.0 °F - 62.1 °F 97% 30.11 in 10.0 mi North - - N/A   Clear
8:53 AM 71.1 °F - 62.1 °F 73% 30.12 in 10.0 mi North - - N/A   Clear
9:53 AM 75.0 °F - 61.0 °F 62% 30.13 in 10.0 mi North - - N/A   Clear
10:53 AM 77.0 °F - 59.0 °F 54% 30.13 in 10.0 mi North - - N/A   Clear
11:53 AM 79.0 °F - 57.9 °F 48% 30.10 in 10.0 mi North - - N/A   Partly Cloudy
12:53 PM 81.0 °F 81.0 °F 57.0 °F 44% 30.08 in 10.0 mi North - - N/A   Scattered Clouds
1:53 PM 79.0 °F - 55.9 °F 45% 30.05 in 10.0 mi North - - N/A   Overcast
2:53 PM 82.0 °F 81.4 °F 55.0 °F 39% 30.02 in 10.0 mi North - - N/A   Mostly Cloudy
3:02 PM 81.0 °F 80.5 °F 54.0 °F 39% 30.03 in 10.0 mi North - - N/A   Mostly Cloudy
3:53 PM 82.9 °F 82.1 °F 55.9 °F 39% 30.01 in 10.0 mi North - - N/A   Mostly Cloudy
4:53 PM 81.0 °F 80.7 °F 55.0 °F 41% 29.99 in 10.0 mi North - - N/A   Clear
5:53 PM 79.0 °F - 55.9 °F 45% 29.98 in 10.0 mi North - - N/A   Clear
6:53 PM 75.0 °F - 57.9 °F 55% 29.97 in 10.0 mi North - - N/A   Partly Cloudy
7:53 PM 73.0 °F - 57.9 °F 59% 29.99 in 10.0 mi North - - N/A   Mostly Cloudy
8:53 PM 70.0 °F - 57.0 °F 63% 30.00 in 10.0 mi North - - N/A   Partly Cloudy
9:53 PM 64.0 °F - 55.9 °F 75% 29.99 in 10.0 mi North - - N/A   Clear
10:53 PM 66.0 °F - 57.0 °F 73% 29.99 in 10.0 mi North - - N/A   Clear
11:53 PM 63.0 °F - 57.0 °F 81% 29.98 in 10.0 mi North - - N/A   Clear